Location: ???????
(55.6894°N, 38.1128°E)
Time: 07:33:34
(UTC+00:00)

Daily predictions for brighter satellites

Satellite Brightness Start Highest point End
(mag) Time Altitude Azimuth Time Altitude Azimuth Time Altitude Azimuth
Cosmos 1300 3.9 14:31:42 10° SE 14:34:44 23° E 14:37:47 10° NE
Cosmos 1703 3.5 14:31:01 10° NNW 14:34:59 76° W 14:38:55 10° S
NOAA 11 4.3 14:29:41 10° SE 14:35:00 57° ENE 14:40:20 10° N
Cosmos 1346 Rocket 4.2 14:32:49 10° NNE 14:35:43 19° ENE 14:38:36 10° ESE
USA 305 3.2 14:31:34 10° W 14:35:52 69° S 14:40:09 10° ESE
H-2A R/B 3.7 14:33:07 10° S 14:37:29 53° W 14:41:57 10° NNW
COSMOS 2455 4.1 14:33:59 10° WNW 14:39:17 30° NNW 14:44:35 10° NE
Cosmos 1825 4.1 14:37:40 10° NNE 14:39:20 12° ENE 14:40:58 10° E
Cosmos 1818 3.6 14:34:47 10° SW 14:40:15 85° SE 14:45:45 10° NE
CZ-2D R/B 4.2 14:37:07 10° ESE 14:40:22 27° ENE 14:43:38 10° N
Cosmos 1953 2.5 14:36:29 10° SSW 14:40:26 76° WNW 14:44:27 10° N
Cosmos 968 Rocket 3.9 14:35:32 10° NNW 14:40:33 42° NE 14:45:29 10° ESE
Aureole 3 Rocket 4.5 14:36:58 10° SE 14:40:33 24° ENE 14:45:07 10° NNE
Cosmos 2297 Rocket 2.3 14:35:34 10° NNW 14:41:15 63° NE 14:46:53 10° SE
Meteor 1-11 4.3 14:35:55 10° NNW 14:41:40 82° ENE 14:47:26 10° SSE
USA 306 3.2 14:37:58 10° W 14:42:15 67° S 14:46:30 10° ESE
CSL-04 DEB 4.4 14:38:48 10° NNE 14:42:44 59° ESE 14:46:36 10° S
Cosmos 2369 Rocket 2.9 14:37:52 10° SW 14:43:29 57° NW 14:49:09 10° NNE
Cosmos 1420 Rocket 4.2 14:39:24 10° SSW 14:44:40 76° WNW 14:49:56 10° NNE
NOSS 2-2 (C) 4.5 14:43:11 10° NW 14:48:13 81° SW 14:55:13 10° SE
ERS-2 2.6 14:45:16 10° NNE 14:48:42 38° E 14:52:07 10° S
Cosmos 371 Rocket 4.3 14:45:25 10° SW 14:50:06 47° NW 14:54:49 10° NNE
COSMO-SKYMED 1 3.6 14:48:18 10° NE 14:51:55 25° E 14:55:30 10° SSE
CORIOLIS 4.3 14:46:47 10° SSE 14:52:09 83° WSW 14:57:34 10° NNW
Cosmos 1340 3.1 14:48:55 10° N 14:52:31 39° ENE 14:56:04 10° SE
FengYun 1-2 T 4.3 14:46:52 10° SSE 14:52:32 81° ENE 14:58:11 10° NNW
Timation 2 Rocket 4.3 14:46:24 10° NW 14:52:57 82° WSW 14:59:44 10° SSE
H-2A R/B 2.0 14:50:05 10° NNE 14:54:19 89° WNW 14:58:26 10° SSW
ADEOS Rocket 3.2 14:48:10 10° NNE 14:54:26 87° ESE 15:01:24 10° SSW
Cosmos 1110 Rocket 4.3 14:50:50 10° S 14:55:51 48° ESE 15:00:52 10° NE
Meteor 2-21 Rocket 4.5 14:52:58 10° N 14:59:12 81° ENE 15:05:21 10° SSE
Cosmos 1486 Rocket 4.1 14:55:13 10° NNW 15:00:31 57° NE 15:05:46 10° SE
Lacrosse 5 1.9 14:55:26 10° W 15:00:32 82° NNW 15:05:06 13° ENE
Cosmos 1825 Rocket 3.8 14:57:07 10° NNW 15:01:36 79° W 15:06:02 10° S
USA 281 4.0 14:56:45 10° SSE 15:03:12 57° WSW 15:09:41 10° NW
Aureole 3 3.8 15:02:20 10° SE 15:04:46 22° E 15:07:10 10° NE
Envisat 4.4 15:00:10 10° S 15:05:00 44° W 15:09:53 10° NNW
Cosmos 292 Rocket 4.2 15:02:24 10° S 15:06:53 41° ESE 15:11:26 10° NE
Okean O Rocket 2.7 15:05:28 10° S 15:09:42 50° W 15:13:58 10° NNW
Cosmos 1503 Rocket 4.4 15:05:14 10° NNW 15:10:14 44° NE 15:15:15 10° SE
Cosmos 2219 3.3 15:05:38 10° NW 15:11:26 87° WSW 15:17:12 10° SSE
YAOGAN 1 3.0 15:07:44 10° SE 15:11:47 40° ENE 15:15:51 10° N
Feng Yun 1-1 Rocket 4.4 15:06:56 10° SSE 15:12:52 90° ENE 15:18:51 10° NNW
NOSS 2-1 (E) 3.7 15:09:38 10° WSW 15:13:01 54° NNW 15:16:47 12° NE
FALCON 9 DEB 3.5 15:09:43 10° W 15:13:06 55° S 15:15:37 16° ESE
Landsat 5 4.3 15:09:48 10° N 15:13:32 49° WNW 15:17:19 10° SW
CZ-2C R/B 3.5 15:08:50 10° SE 15:14:20 48° ENE 15:19:40 10° N
ERBS 2.3 15:12:41 10° W 15:16:02 71° N 15:18:15 20° ENE
SMAP 4.4 15:13:11 10° S 15:17:39 45° W 15:22:08 10° NNW
Cosmos 1553 Rocket 4.4 15:11:58 10° SSE 15:17:48 41° E 15:23:35 10° NNE
Cosmos 1943 Rocket 3.7 15:12:57 10° W 15:17:51 31° NW 15:22:44 10° NNE
Cosmos 2082 3.8 15:14:28 10° NNW 15:20:11 61° NE 15:25:52 10° SE
Cosmos 1354 Rocket 4.3 15:16:38 10° NNW 15:21:44 47° NE 15:26:49 10° SE
Cosmos 1726 Rocket 3.5 15:17:54 10° S 15:22:13 66° E 15:26:36 10° NNE
Cosmos 1455 4.3 15:20:45 10° SE 15:21:06 12° SE 15:21:06 12° SE
Meteor 2-10 Rocket 4.3 15:19:46 10° SSE 15:24:11 28° E 15:28:31 10° NNE
USA 307 3.4 15:20:51 10° W 15:25:03 55° SSW 15:28:30 15° ESE
Cosmos 2278 Rocket 4.2 15:21:31 10° NW 15:25:18 18° N 15:29:05 10° NE
ATLAS 5 CENTAUR R/B 2.6 15:23:28 10° W 15:27:45 43° NNW 15:31:57 14° NE
Cosmos 2228 3.0 15:25:18 10° SSW 15:29:34 85° WNW 15:33:53 10° NNE
USA 308 3.5 15:25:41 10° W 15:29:52 53° SSW 15:33:09 16° SE
CZ-4B R/B 1.3 15:26:57 10° NNE 15:30:15 83° WNW 15:33:26 10° SSW
Cosmos 1939 Rocket 2.9 15:27:02 10° SSE 15:30:59 80° WSW 15:34:55 10° NNW
Cosmos 1452 Rocket 4.3 15:27:02 10° SW 15:32:12 54° NW 15:37:25 10° NNE
SL-08 R/B 4.4 15:28:43 10° N 15:34:57 77° ENE 15:41:05 10° SSE
CZ-4 R/B 4.4 15:30:48 10° SSE 15:34:59 90° W 15:39:11 10° NNW
ARGOS 3.5 15:32:16 10° SE 15:37:20 42° ENE 15:42:27 10° N
Helios 1A Rocket 2.9 15:33:40 10° SSE 15:37:48 89° ENE 15:41:55 10° NNW
Cosmos 1606 Rocket 3.7 15:33:27 10° SSW 15:37:50 77° WNW 15:42:18 10° N
Cosmos 1745 Rocket 4.0 15:31:46 10° N 15:38:01 63° ENE 15:44:17 10° SSE
Cosmos 1844 Rocket 4.3 15:35:13 10° NNW 15:39:23 20° NNE 15:42:00 15° NE
SKYMED 2 3.5 15:35:58 10° NNE 15:40:17 62° ESE 15:44:36 10° S
Cosmos 2151 3.9 15:38:50 10° N 15:42:27 27° ENE 15:42:53 26° ENE
Cosmos 1656 4.1 15:37:25 10° S 15:42:36 41° ESE 15:47:09 14° NE
GENESIS II 4.2 15:38:54 10° SW 15:42:55 68° SE 15:45:10 25° ENE
Okean-O 2.6 15:38:29 10° SSE 15:42:56 87° ENE 15:47:25 10° NNW
BREEZE-M R/B 4.2 15:40:25 10° WSW 15:44:04 44° S 15:48:28 19° ESE
SJ-6B 4.3 15:45:04 21° NE 15:45:04 21° NE 15:47:49 10° N
FALCON 9 DEB 4.4 15:42:45 10° SSW 15:45:21 23° SSE 15:45:35 23° SE
Cosmos 2227 Rocket 2.6 15:39:49 10° NW 15:45:27 67° WSW 15:51:03 10° SSE
SL-08 RB Rocket 4.4 15:44:23 26° E 15:45:46 32° ENE 15:49:47 10° N
Cosmos 1689 Rocket 1.8 15:44:31 15° NNE 15:46:50 66° ESE 15:49:41 10° S
H-2A R/B 2.2 15:42:26 10° SE 15:47:47 61° ENE 15:53:10 10° N
GEOS 3 Rocket 3.7 15:43:24 12° SE 15:48:28 82° SW 15:53:56 10° NW
Ariane Rocket 3.8 15:47:26 26° E 15:48:57 30° ENE 15:53:23 10° N
PSLV R/B 3.9 15:45:14 10° NNE 15:49:25 62° ESE 15:53:32 10° S
Timation 1 Rocket 4.3 15:43:32 10° NW 15:49:34 69° NE 15:54:14 17° SE
Cosmos 1400 Rocket 2.7 15:46:57 10° S 15:51:04 75° E 15:55:08 10° NNE
Cosmos 2263 Rocket 2.7 15:46:02 10° NNW 15:51:24 40° NE 15:53:51 27° E
Cosmos 2058 2.7 15:47:24 10° N 15:51:32 73° ENE 15:55:37 10° SSE
Cosmos 1386 Rocket 4.5 15:45:11 10° N 15:51:38 73° ENE 15:57:59 10° SSE
NOSS 3-4 (A) 3.8 15:45:16 10° NW 15:51:55 69° NNE 15:56:44 23° ESE
NOSS 3-4 (C) 3.8 15:45:22 10° NW 15:52:01 69° NNE 15:56:48 23° ESE
Cosmos 1892 2.8 15:50:12 10° NNW 15:54:06 80° W 15:57:59 10° S
CZ-4 R/B 1.3 15:50:55 10° SSE 15:54:48 79° WSW 15:58:41 10° NNW
CZ-4C R/B 3.1 15:48:51 10° WNW 15:55:03 51° NNE 15:59:14 25° E
CSL-04 Rocket 3.6 15:49:35 10° SSE 15:55:06 70° ENE 16:00:35 10° NNW
Cosmos 1408 2.4 15:55:20 10° N 15:59:00 81° ENE 16:02:40 10° SSE
Meteor 2-1 Rocket 4.3 15:55:57 10° SSE 16:01:12 48° E 16:06:31 10° NNE
Cosmos 1697 Rocket 3.2 16:01:51 10° S 16:06:55 36° ESE 16:07:49 34° E
Cosmos 1709 Rocket 4.0 16:01:28 10° N 16:07:48 62° ENE 16:14:08 10° SSE
USA 215 3.2 16:04:18 27° ESE 16:08:08 90° ESE 16:14:44 10° WNW
Cosmos 1331 Rocket 4.4 16:04:04 10° SW 16:09:11 62° WNW 16:14:20 10° NNE
SeaSat 1 2.3 16:06:39 24° SE 16:09:42 81° NE 16:14:40 10° NNW
Cosmos 1300 3.9 16:06:31 10° SW 16:10:11 42° WNW 16:13:51 10° N
CRYOSAT 2 4.3 16:05:40 10° N 16:10:31 62° E 16:15:20 10° S
Cosmos 2058 Rocket 3.4 16:06:36 10° SSW 16:11:05 71° WNW 16:15:38 10° N
Cosmos 1346 Rocket 3.1 16:08:32 10° NNW 16:12:31 66° W 16:16:29 10° S
SL-4 R/B 2.6 16:09:27 10° W 16:12:49 39° S 16:13:29 36° SSE
ATLAS 2AS CENTAUR R/B 2.9 16:06:22 10° NW 16:14:07 72° NNE 16:17:50 32° ESE
Cosmos 1825 2.0 16:11:42 10° N 16:15:31 82° ENE 16:16:47 40° SSE
USA 305 4.1 16:11:36 10° W 16:15:33 36° SSW 16:17:18 25° SSE
Cosmos 44 3.1 16:13:55 10° SW 16:18:32 90° NNW 16:20:38 34° NE
SJ-11-01 4.3 16:16:17 10° SSE 16:20:57 80° WSW 16:25:41 10° NNW
Cosmos 2074 Rocket 4.5 16:15:18 10° N 16:21:02 36° ENE 16:21:39 36° ENE
USA 306 4.2 16:18:01 10° W 16:21:55 34° SSW 16:23:25 26° S
Cosmos 1315 Rocket 3.8 16:18:12 10° S 16:20:29 32° SSE 16:20:29 32° SSE
ERS-2 4.3 16:19:02 10° N 16:22:09 27° WNW 16:25:15 10° WSW
Cosmos 2297 Rocket 3.9 16:20:01 10° NW 16:25:01 33° WSW 16:30:00 10° S
COSMOS 2455 4.0 16:21:36 10° NW 16:26:54 30° NNE 16:28:52 25° NE
MOS 1 Rocket 3.2 16:22:30 10° NNE 16:27:05 64° ESE 16:31:56 10° S
Aureole 3 Rocket 4.0 16:23:01 10° SSW 16:27:19 59° WNW 16:33:24 10° N
SJ 16-02 2.9 16:24:28 10° N 16:27:09 23° NNE 16:27:09 23° NNE
COSMO-SKYMED 1 3.3 16:24:07 10° N 16:28:22 53° WNW 16:32:35 10° SW
Cosmos 2369 Rocket 4.2 16:24:14 10° WNW 16:28:44 23° NNW 16:33:16 10° NNE
Cosmos 883 Rocket 4.4 16:22:46 10° S 16:28:46 57° E 16:34:46 10° NNE
IRS-1A Rocket 4.3 16:27:43 42° ESE 16:29:18 58° ENE 16:34:43 10° NNW
Cosmos 1777 Rocket 3.9 16:24:18 10° NNW 16:29:30 65° ENE 16:30:35 51° ESE
Cosmos 1980 Rocket 4.2 16:24:47 10° SSE 16:25:27 13° SSE 16:25:27 13° SSE
Cosmos 1076 Rocket 3.8 16:26:56 10° NNW 16:31:10 66° W 16:34:43 14° S
Cosmos 2315 Rocket 4.0 16:26:38 10° SSE 16:32:35 52° E 16:38:34 10° NNE
S3M 3.9 16:27:07 10° S 16:33:15 88° E 16:39:29 10° NNE
HJ-1C 3.9 16:34:02 52° SW 16:34:27 57° W 16:37:47 10° NNW
MOS 1 4.3 16:35:18 48° ESE 16:36:35 60° ENE 16:42:10 10° NNW
Cosmos 2227 4.1 16:33:00 10° NNW 16:38:39 69° NE 16:39:46 55° ESE
Cosmos 1302 Rocket 4.4 16:34:53 10° SW 16:40:07 64° WNW 16:45:26 10° NNE
MetOp-A 4.1 16:40:39 57° ESE 16:41:19 62° ENE 16:46:39 10° NNW
Lacrosse 5 1.7 16:38:37 10° WNW 16:43:43 83° N 16:44:18 70° E
Resurs 01 Rocket 3.5 16:46:53 19° NNE 16:46:53 19° NNE 16:48:32 10° N
YAOGAN 1 4.3 16:44:03 10° SSW 16:47:58 32° W 16:51:54 10° NNW
Okean 3 Rocket 4.3 16:44:33 10° N 16:47:36 41° NNE 16:47:36 41° NNE
Meteor 2-3 Rocket 3.6 16:45:57 10° NNW 16:51:41 71° ENE 16:52:25 63° ESE
SPOT 3 Rocket 4.2 16:53:07 40° NNE 16:53:07 40° NNE 16:57:06 10° N
ERBS 3.8 16:49:03 10° WNW 16:51:09 35° WNW 16:51:09 35° WNW
Cosmos 1766 Rocket 4.4 16:48:14 10° N 16:51:19 41° N 16:51:19 41° N
Cosmos 1455 4.3 16:54:54 10° SSW 17:04:25 - N 16:56:10 20° SSW
Cosmos 1943 Rocket 4.3 16:59:48 10° NW 17:03:23 17° N 17:06:01 13° NNE
Meteor 2-10 Rocket 4.1 17:00:49 10° SSW 17:05:59 56° WNW 17:11:01 10° N
Terra 4.3 17:11:54 10° NNE 17:11:54 10° NNE 17:11:59 10° NNE
Cosmos 2278 Rocket 3.9 17:07:20 10° NNW 17:11:34 21° NNE 17:11:49 21° NNE
ATLAS 5 CENTAUR R/B 3.0 17:08:55 10° WNW 17:13:23 36° N 17:13:29 36° N
ARGOS 4.2 17:13:09 13° SSW 17:17:38 43° W 17:22:50 10° NNW
CZ-2C R/B 4.2 17:12:33 10° NNE 17:14:40 24° NNE 17:14:40 24° NNE
SJ-6B 4.4 17:20:42 33° NNW 17:20:42 33° NNW 17:23:06 10° NNW
Cosmos 1992 Rocket 4.2 17:13:59 10° SW 17:19:11 69° WNW 17:19:35 66° NNW
Cosmos 2151 4.1 17:15:55 10° NNW 17:19:28 42° WNW 17:19:28 42° WNW
Cosmos 2369 4.0 17:16:37 10° SSW 17:21:09 58° SSW 17:21:09 58° SSW
Cosmos 1844 Rocket 3.5 17:19:17 10° NNW 17:23:39 40° NNE 17:23:39 40° NNE
Geosat 4.5 17:26:30 56° WSW 17:26:30 56° WSW 17:30:30 10° SW
Cosmos 1656 4.3 17:20:43 10° SW 17:26:11 53° NW 17:28:36 32° NNE
H-2A R/B 3.9 17:22:49 10° SSW 17:27:33 30° W 17:32:21 10° NNW
Ariane Rocket 3.4 17:27:38 59° WSW 17:27:40 59° WSW 17:32:45 10° NNW
Cosmos 2263 Rocket 2.6 17:30:01 10° NW 17:35:34 59° WSW 17:35:34 59° WSW
NOSS 3-4 (A) 4.4 17:36:15 10° NW 17:42:49 50° SW 17:44:11 44° SSW
NOSS 3-4 (C) 4.4 17:36:21 10° NW 17:42:56 50° SW 17:44:15 45° SSW
CZ-4C R/B 2.7 17:37:24 10° NW 17:44:14 85° SW 17:44:25 84° S
Cosmos 2184 Rocket 4.1 17:40:17 10° NNW 17:46:17 74° WNW 17:46:17 74° WNW
SeaSat 1 4.4 17:46:27 21° SW 17:47:44 23° WSW 17:51:40 10° NW
Cosmos 1697 Rocket 3.4 17:45:08 10° SW 17:49:38 50° W 17:49:38 50° W
USA 215 3.6 17:51:39 52° SW 17:51:39 52° SW 17:57:56 10° WNW
ATLAS 2AS CENTAUR R/B 3.4 17:57:45 10° NW 18:04:53 47° WSW 18:05:16 46° SW
SJ 16-02 3.8 18:02:45 10° NNW 18:04:08 20° NNW 18:04:08 20° NNW
COSMOS 2455 3.9 18:08:00 10° NW 18:12:00 40° NNW 18:12:00 40° NNW
Cosmos 2369 Rocket 4.3 18:11:07 10° NW 18:14:54 18° N 18:15:17 17° N
Resurs 01 Rocket 4.3 18:24:28 15° NNW 18:24:28 15° NNW 18:25:22 10° NNW
Lacrosse 5 4.1 18:21:41 10° WNW 18:23:30 22° W 18:23:30 22° W
Cosmos 1943 Rocket 4.5 18:45:19 10° NNW 18:47:32 17° N 18:47:32 17° N
Cosmos 2278 Rocket 4.3 18:51:35 10° NNW 18:53:39 22° NNW 18:53:39 22° NNW
ATLAS 5 CENTAUR R/B 4.4 18:53:43 10° NW 18:55:01 18° NW 18:55:01 18° NW
ADEOS II 4.5 23:11:59 10° NNE 23:13:34 18° NE 23:13:34 18° NE
Cosmos 1980 Rocket 4.2 23:30:57 24° NE 23:30:57 24° NE 23:34:54 10° E
Resurs 1-4 Rocket 4.4 23:27:22 10° NNE 23:28:50 19° NNE 23:28:50 19° NNE
SL-16 R/B 4.2 23:36:52 22° NNE 23:36:52 22° NNE 23:39:05 10° NNE
Cosmos 2219 Rocket 4.4 23:43:23 18° N 23:43:23 18° N 23:46:18 10° NNE
CZ-2D R/B 4.3 23:46:09 10° NNE 23:47:39 20° N 23:47:39 20° N
